Flag for Lithuania Weather past 2 weeks in Vilnius, Lithuania

Now
57 °F

Sprinkles. Fog.


Feels Like: 56 °F
Forecast: 48 / 68 °F
Wind: 7 mph from Northeast

Location: Vilnius Airport

Current Time: Aug 31, 2014 at 4:14:37 AM

Latest Report: Aug 31, 2014 at 3:20 AM


Visibility: 2 mi

Pressure: 29.95 "Hg

Humidity: 94%

Dew point: 55 °F

Location of VilniusLocation

Historic Weather in Vilnius — Graph

°F

Vilnius temperature yesterday

Maximum temperature yesterday: 70 °F (at 2:50 PM)
Minimum temperature yesterday: 41 °F (at 4:20 AM)
Average temperature yesterday: 57 °F

Past Weeks' High & Low Weather Summary

 TemperatureHumidityPressure
High72 °F (Aug 18, 1:50 PM)100% (Aug 16, 2:50 AM)30.01 "Hg (Aug 16, 2:50 AM)
Low41 °F (Aug 30, 4:20 AM)40% (Aug 20, 4:50 PM)29.59 "Hg (Aug 25, 2:50 AM)
Average57 °F80%29.84 "Hg
* Reported Aug 16 2:20 AM — Aug 31 2:50 AM, Vilnius, Weather by CustomWeather, © 2014

Note: Actual official high and low records may vary slightly from our data, if they occured in-between our weather recording intervals... More about our weather records

Advertising

Vilnius weather history for previous 24 hours

 ConditionsComfort  
Time TempWeatherWind HumidityBarometerVisibility
2:50 AM
Aug 31
57 °FFog.5 mph100%29.95 "Hg2 mi
2:20 AM57 °FFog.6 mph100%29.95 "Hg2 mi
1:50 AM57 °FFog.3 mph100%29.98 "Hg2 mi
1:20 AM59 °FSprinkles. Fog.5 mph94%29.98 "Hg2 mi
12:50 AM59 °FFog.2 mph94%29.98 "Hg2 mi
12:20 AM59 °FSprinkles. Fog.2 mph94%29.98 "Hg2 mi
11:50 PM
Aug 30
59 °FRain showers. Fog.3 mph94%29.98 "Hg1 mi
11:20 PM59 °FRain showers. Fog.2 mph94%29.98 "Hg1 mi
10:50 PM59 °FRain showers. Fog.3 mph94%29.98 "Hg2 mi
10:20 PM59 °FSprinkles. Fog.3 mph94%29.98 "Hg2 mi
9:50 PM59 °FSprinkles. Fog.5 mph94%29.98 "Hg2 mi
9:20 PM63 °FMostly cloudy.5 mph73%29.98 "Hg4 mi
8:20 PM63 °FMore clouds than sun.3 mph77%29.98 "Hg5 mi
7:50 PM63 °FBroken clouds.5 mph77%29.98 "Hg5 mi
7:20 PM64 °FBroken clouds.3 mph73%29.98 "Hg5 mi
6:50 PM64 °FBroken clouds.5 mph73%29.98 "HgN/A
6:20 PM66 °FBroken clouds.5 mph64%29.98 "HgN/A
5:50 PM68 °FBroken clouds.5 mph56%29.98 "HgN/A
5:20 PM68 °FBroken clouds.3 mph60%29.98 "HgN/A
4:50 PM68 °FSunny.2 mph56%30.01 "Hg10 mi
4:20 PM68 °FSunny.3 mph53%30.01 "Hg10 mi
3:20 PM68 °FSunny.2 mph49%30.01 "Hg10 mi
2:50 PM70 °FSunny.3 mph46%30.01 "Hg10 mi
2:20 PM68 °FPassing clouds.3 mph49%30.01 "HgN/A
1:50 PM68 °FSunny.2 mph46%30.01 "Hg10 mi
1:20 PM66 °FSunny.2 mph49%30.01 "Hg10 mi
12:50 PM66 °FSunny.2 mph49%30.01 "Hg10 mi
12:20 PM66 °FSunny.2 mph43%30.01 "Hg10 mi
11:50 AM66 °FSunny.3 mph56%30.01 "Hg10 mi
11:20 AM64 °FSunny.3 mph60%30.01 "Hg10 mi
10:50 AM64 °FSunny.2 mph73%30.01 "Hg10 mi
10:20 AM61 °FSunny.3 mph83%30.01 "Hg10 mi
9:50 AM59 °FSunny.3 mph94%30.01 "Hg10 mi
9:20 AM57 °FSunny.1 mph100%30.01 "Hg10 mi
8:50 AM52 °FSunny.1 mph100%30.01 "Hg10 mi
8:20 AM50 °FSunny.1 mph100%30.01 "Hg10 mi
7:50 AM48 °FClear.1 mph100%30.01 "Hg4 mi
7:20 AM45 °FFog.1 mph100%30.01 "Hg1 mi
6:50 AM43 °FFog.1 mph100%30.01 "Hg0 mi
6:20 AM43 °FFog.No wind100%30.01 "Hg0 mi
5:50 AM43 °FFog.No wind100%30.01 "Hg0 mi
5:20 AM41 °FFog.1 mph100%30.01 "Hg0 mi
4:50 AM43 °FFog.No wind100%30.01 "Hg0 mi
4:20 AM41 °FFog.1 mph100%30.01 "Hg0 mi
Weather by CustomWeather, © 2014

See weather overviewHow to use our weather pages